ANA1E RJNS-RJNS

Flight info

Callsign ANA1E
Flight time 0h 10m
Altitude 3000
Route IFR RIGHT HAND CIRCUIT
Aircraft A321/M-SDE3FGHIRWY/LB1

Departure

Time 2026-04-24 16:28
Airport Mount Fuji Shizuoka Airport (RJNS)

Arrival

Time 2026-04-24 16:38
Airport Mount Fuji Shizuoka Airport (RJNS)
Time Latitude Longitude Altitude Speed Heading
2026-04-24 16:20 34.79745 138.17728 454 ft 0 kts 202°
2026-04-24 16:22 34.79752 138.17732 454 ft 3 kts 202°
2026-04-24 16:22 34.79778 138.17750 454 ft 4 kts 212°
2026-04-24 16:22 34.79784 138.17755 454 ft 0 kts 212°
2026-04-24 16:23 34.79800 138.17765 454 ft 4 kts 156°
2026-04-24 16:23 34.79807 138.17762 454 ft 0 kts 83°
2026-04-24 16:24 34.79807 138.17764 454 ft 2 kts 83°
2026-04-24 16:24 34.79798 138.17810 454 ft 10 kts 111°
2026-04-24 16:24 34.79765 138.17914 454 ft 17 kts 111°
2026-04-24 16:24 34.79712 138.18069 454 ft 23 kts 113°
2026-04-24 16:25 34.79643 138.18270 452 ft 28 kts 112°
2026-04-24 16:25 34.79568 138.18500 449 ft 31 kts 112°
2026-04-24 16:25 34.79486 138.18748 442 ft 33 kts 112°
2026-04-24 16:26 34.79302 138.19309 431 ft 38 kts 111°
2026-04-24 16:26 34.79216 138.19555 424 ft 31 kts 114°
2026-04-24 16:26 34.79053 138.20055 421 ft 17 kts 101°
2026-04-24 16:27 34.79126 138.20172 419 ft 24 kts 18°
2026-04-24 16:27 34.79219 138.20089 429 ft 15 kts 285°
2026-04-24 16:27 34.79348 138.19698 428 ft 100 kts 293°
2026-04-24 16:27 34.79701 138.18639 810 ft 137 kts 292°
2026-04-24 16:28 34.80090 138.17481 1553 ft 161 kts 292°
2026-04-24 16:28 34.80509 138.16190 2401 ft 167 kts 292°
2026-04-24 16:28 34.81600 138.13294 2988 ft 218 kts 308°
2026-04-24 16:29 34.82748 138.11978 3033 ft 232 kts 335°
2026-04-24 16:29 34.84243 138.11485 3022 ft 222 kts
2026-04-24 16:29 34.86841 138.13103 2999 ft 215 kts 58°
2026-04-24 16:30 34.86941 138.16490 2992 ft 210 kts 109°
2026-04-24 16:30 34.86336 138.18118 3001 ft 210 kts 112°
2026-04-24 16:30 34.85717 138.19712 3004 ft 210 kts 112°
2026-04-24 16:31 34.85095 138.21319 3002 ft 210 kts 112°
2026-04-24 16:31 34.84486 138.22893 3003 ft 199 kts 112°
2026-04-24 16:31 34.83922 138.24318 2987 ft 178 kts 112°
2026-04-24 16:31 34.83381 138.25664 2989 ft 177 kts 112°
2026-04-24 16:32 34.83018 138.26565 3004 ft 177 kts 112°
2026-04-24 16:32 34.82293 138.28376 3032 ft 177 kts 112°
2026-04-24 16:32 34.81759 138.29713 3014 ft 178 kts 112°
2026-04-24 16:32 34.81213 138.31070 3006 ft 178 kts 112°
2026-04-24 16:33 34.80667 138.32429 3003 ft 178 kts 112°
2026-04-24 16:33 34.80123 138.33784 3000 ft 178 kts 112°
2026-04-24 16:33 34.79585 138.35118 2999 ft 178 kts 112°
2026-04-24 16:33 34.79038 138.36475 3000 ft 178 kts 112°
2026-04-24 16:34 34.78287 138.37691 2991 ft 186 kts 138°
2026-04-24 16:34 34.77050 138.38212 2993 ft 195 kts 172°
2026-04-24 16:34 34.75737 138.37798 2996 ft 203 kts 207°
2026-04-24 16:34 34.74771 138.36540 2996 ft 206 kts 243°
2026-04-24 16:35 34.74502 138.34879 2920 ft 196 kts 274°
2026-04-24 16:35 34.74777 138.33303 2720 ft 186 kts 292°
2026-04-24 16:35 34.75290 138.31877 2481 ft 182 kts 296°
2026-04-24 16:35 34.75763 138.30477 2242 ft 179 kts 295°
2026-04-24 16:36 34.76215 138.29112 2001 ft 167 kts 294°
2026-04-24 16:36 34.76626 138.27874 1803 ft 148 kts 294°
2026-04-24 16:36 34.76989 138.26780 1602 ft 135 kts 294°
2026-04-24 16:36 34.77327 138.25766 1420 ft 126 kts 294°
2026-04-24 16:37 34.77651 138.24778 1260 ft 125 kts 291°
2026-04-24 16:37 34.77961 138.23797 1098 ft 124 kts 292°
2026-04-24 16:37 34.78178 138.23152 978 ft 124 kts 293°
2026-04-24 16:37 34.78618 138.21847 757 ft 124 kts 292°
2026-04-24 16:38 34.78947 138.20882 600 ft 124 kts 293°
2026-04-24 16:38 34.79273 138.19932 454 ft 118 kts 292°
2026-04-24 16:38 34.79530 138.19149 438 ft 68 kts 291°
2026-04-24 16:38 34.79651 138.18790 440 ft 22 kts 287°
2026-04-24 16:39 34.79605 138.18658 435 ft 14 kts 200°
2026-04-24 16:39 34.79548 138.18562 448 ft 10 kts 294°
2026-04-24 16:39 34.79588 138.18453 449 ft 18 kts 291°
2026-04-24 16:39 34.79642 138.18283 452 ft 25 kts 291°
2026-04-24 16:40 34.79711 138.18069 454 ft 27 kts 291°
2026-04-24 16:40 34.79755 138.17929 454 ft 9 kts 281°
2026-04-24 16:40 34.79722 138.17901 454 ft 9 kts 195°
2026-04-24 16:40 34.79651 138.17866 454 ft 10 kts 204°
2026-04-24 16:41 34.79631 138.17856 454 ft 0 kts 201°